Regional Weather Roundup
Issued by NWS

Home | Current Version | Previous Version | Text Only | Print | Product List | Glossary Off
Versions: 1 2 3 4 5 6 7 8 9 10 11 12 13 14 15 16 17 18 19 20 21 22 23 24 25 26 27 28 29 30 31 32 33 34 35 36 37 38 39 40 41 42 43 44 45 46 47 48 49 50

000
ASUS43 KIND 280109
RWRIN

WEATHER ROUNDUP FOR INDIANA
NATIONAL WEATHER SERVICE INDIANAPOLIS IN
900 PM EDT TUE JUN 27 2017

NOTE: "FAIR" INDICATES FEW OR NO CLOUDS BELOW 12,000 FEET WITH NO
SIGNIFICANT WEATHER AND/OR OBSTRUCTIONS TO VISIBILITY.

* - STATION DOES NOT REPORT WEATHER SUCH AS PRECIPITATION OR FOG.

+ - STATION NOT QUALITY CONTROLLED BY THE NATIONAL WEATHER SERVICE.
    USE DATA WITH CAUTION...ESPECIALLY DEWPOINT AND RELATIVE
    HUMIDITY OBSERVATIONS.

INZ001>003-010>013-019-020-280200-
NORTHWEST INDIANA

CITY           SKY/WX    TMP DP  RH WIND       PRES   REMARKS
GARY /AIRPORT/ PTCLDY    72  48  43 CALM      30.04S
MICHIGAN CITY+ CLEAR     68  46  45 CALM      30.05S
MONTICELLO +   CLEAR     70  47  44 S5        30.06S
RENSSELAER +   CLEAR     70  39  32 CALM      30.06S
VALPARAISO     CLEAR     70  48  45 S3        30.05S

$$

LMZ046-743>745-280200-
SOUTHERN LAKE MICHIGAN

STATION/POSITION TIME  TEMP    WIND        PRES    WAVE
                       AIR SEA DIR/SP/G            HT
                 (UTC) (F)     (DEG/KT/KT) (MB)    (FT)
BURNS HARBOR     0100   73     160/  7/ 12 1017.6
MICHIGAN CITY    0040   71     100/  5/  7   N/A
5NW MICH CITY    0100   67 66   90/  6/  6   N/A     1

$$

INZ004-005-014>016-021>024-280200-
NORTH CENTRAL INDIANA

CITY           SKY/WX    TMP DP  RH WIND       PRES   REMARKS
ELKHART        CLEAR     68  41  37 CALM      30.06S
GOSHEN         CLEAR     65  42  43 W5        30.07R
PERU/GRISSOM   CLEAR     66  52  61 SW5       30.04F
SOUTH BEND     CLEAR     69  42  37 CALM      30.06S

$$

INZ006>009-017-018-025>027-280200-
NORTHEAST INDIANA

CITY           SKY/WX    TMP DP  RH WIND       PRES   REMARKS
ANGOLA *+      CLEAR     68  61  77 W3        30.06S
FORT WAYNE     PTCLDY    67  52  58 W3        30.08R
KENDALLVILLE + CLEAR     66  43  42 NW3       30.07S

$$

INZ028-029-035-036-043>045-051>053-280200-
WEST CENTRAL INDIANA

CITY           SKY/WX    TMP DP  RH WIND       PRES   REMARKS
CRAWFORDSVL +  CLEAR     64  54  69 CALM      30.08S
GREENCASTLE +  CLEAR     64  52  63 CALM      30.09S
LAFAYETTE      CLEAR     68  51  54 CALM      30.06S
TERRE HAUTE    CLEAR     70  49  47 CALM      30.08R

$$

INZ030>032-037>040-046>048-054>057-064-065-280200-
CENTRAL INDIANA

CITY           SKY/WX    TMP DP  RH WIND       PRES   REMARKS
COLUMBUS       CLEAR     70  45  40 CALM      30.09S
INDIANAPOLIS   PTCLDY    66  49  54 SW7       30.08R
-EAGLE CREEK   CLEAR     68  47  46 CALM      30.08R
KOKOMO +       CLEAR     70  48  45 W5        30.09S
MT COMFORT *+  CLEAR     68  46  45 NE3       30.09S
SHELBYVILLE    CLEAR     69  48  47 S5        30.08S

$$

INZ033-034-041-042-049-050-058-059-280200-
EAST CENTRAL INDIANA

CITY           SKY/WX    TMP DP  RH WIND       PRES   REMARKS
MUNCIE         CLEAR     69  47  45 CALM      30.09R
RICHMOND +     CLEAR     64  46  52 CALM      30.11S

$$

INZ060-061-067>069-081>083-085>088-280200-
SOUTHWEST INDIANA

CITY           SKY/WX    TMP DP  RH WIND       PRES   REMARKS
EVANSVILLE     CLEAR     73  52  47 N3        30.07S
HUNTINGBURG *+ CLEAR     69  56  62 MISG      30.08S

$$

INZ062-063-066-070>080-084-089>092-280200-
SOUTH CENTRAL AND SOUTHEAST INDIANA

CITY           SKY/WX    TMP DP  RH WIND       PRES   REMARKS
BEDFORD +      CLEAR     66  50  55 CALM      30.08
BLOOMINGTON    CLEAR     66  53  63 CALM      30.09R
MADISON *+     CLEAR     68  52  56 CALM      30.11S
NORTH VERNON + CLEAR     64  54  68 CALM      30.10S
SEYMOUR +      CLEAR     72  50  46 CALM      30.08S

$$





USA.gov is the U.S. government's official web portal to all federal, state and local government web resources and services.